[[[{"header":{"parameterUnit":"kt","parameterCategory":2,"dx":1,"dy":1,"la1":30.253999710083008,"la2":30.299108505249023,"lo1":-89.0895004272461,"lo2":-89.04439544677734,"nx":28,"ny":28,"refTime":"2022-09-29T21:00:00:Z","depth":0,"parameterNumber":1,"parameterNumberName":"U-component_of_WINDS"},"data":[3.5457,3.5504,3.55,3.5553,3.5558,3.5594,3.5606,3.5621,3.5631,3.5675,3.5699,3.5701,3.5711,3.574,3.5767,3.5767,3.578,3.58,3.5797,3.5707,3.5694,3.5682,3.567,3.5803,3.5803,3.5892,3.5893,3.5893,3.5396,3.5402,3.5427,3.545,3.5472,3.545,3.5467,3.5487,3.552,3.5533,3.5556,3.5594,3.5624,3.5626,3.5655,3.5679,3.567,3.5687,3.5685,3.5687,3.559,3.5578,3.5693,3.5693,3.5693,3.5693,3.5693,3.5693,3.5284,3.5312,3.5322,3.5349,3.5359,3.5374,3.5401,3.54,3.5426,3.5453,3.5442,3.548,3.5492,3.5523,3.5532,3.5562,3.5543,3.556,3.5564,3.5569,3.5576,3.5452,3.5566,3.5566,3.5566,3.5565,3.5565,0,3.52,3.5194,3.5217,3.524,3.526,3.5277,3.5292,3.5308,3.5293,3.5315,3.5346,3.5364,3.5399,3.5429,3.5453,3.5459,3.5438,3.5435,3.5447,3.5453,3.5457,3.5457,3.53,3.5431,3.543,3.5429,3.5428,3.5428,3.5087,3.5119,3.5126,3.5144,3.515,3.5178,3.5193,3.5177,3.5195,3.5212,3.5237,3.5266,3.5288,3.534,3.5339,3.5365,3.5355,3.5406,3.5359,3.5365,3.5358,3.5357,3.5361,3.5416,3.5417,3.5418,3.542,0,3.5025,3.5015,3.5063,3.5066,3.5068,3.5103,3.5106,3.5133,3.5128,3.5166,3.5173,3.5167,3.5198,3.5188,3.5221,3.5215,3.5277,3.5266,3.5274,3.5271,3.5317,3.5313,3.5463,3.5483,3.5344,3.5345,3.5346,0,3.4926,3.4968,3.4951,3.4979,3.5026,3.5007,3.5055,3.5055,3.5064,3.5093,3.5066,3.5094,3.5076,3.5103,3.5095,3.5143,3.5148,3.5147,3.5145,3.515,3.515,3.516,3.5154,3.5135,3.5134,3.5133,3.5133,0,3.483,3.4868,3.4913,3.4921,3.4927,3.4949,3.4953,3.4961,3.4976,3.4994,3.5004,3.5027,3.5039,3.5058,3.5046,3.5015,3.5104,3.5059,3.5103,3.5104,3.5123,3.5122,3.5258,3.5132,3.5131,3.5131,3.5131,0,3.4747,3.4764,3.483,3.4835,3.4845,3.4875,3.4895,3.4918,3.4928,3.4924,3.4938,3.4918,3.4957,3.4913,3.4968,3.4931,3.4945,3.4947,3.495,3.4953,3.4904,3.4983,3.5112,3.5126,3.4957,3.4956,3.4954,0,3.4641,3.4704,3.4687,3.475,3.4777,3.4745,3.4778,3.4786,3.4783,3.4807,3.4803,3.483,3.4794,3.4801,3.483,3.4827,3.4876,3.482,3.4858,3.486,3.4857,3.4975,3.4997,3.5085,3.4935,3.4937,3.4939,0,3.4557,3.4561,3.4573,3.4581,3.4588,3.4609,3.4647,3.4668,3.4685,3.4697,3.4729,3.4765,3.474,3.4751,3.4737,3.4767,3.4843,3.4736,3.4736,3.4757,3.4924,3.4945,3.496,3.4827,3.4829,3.4831,3.4924,0,3.4439,3.4467,3.4498,3.4513,3.4528,3.4565,3.4551,3.4569,3.4553,3.4547,3.4593,3.4595,3.4617,3.4629,3.4614,3.4685,3.4672,3.4644,3.46,3.4677,3.4708,3.472,3.4556,3.4555,3.4554,3.4553,0,0,3.434,3.438,3.4358,3.4391,3.4403,3.4366,3.4408,3.4414,3.4428,3.4437,3.4413,3.4464,3.4467,3.4524,3.4546,3.4554,3.4567,3.4539,3.464,3.465,3.4659,3.4692,3.4705,3.4551,3.455,3.455,3.4549,0,3.4293,3.4295,3.4334,3.434,3.4347,3.4338,3.4348,3.4348,3.4346,3.4388,3.4358,3.4383,3.4423,3.4431,3.444,3.4532,3.4508,3.454,3.4594,3.4629,3.464,3.465,3.4685,3.4697,3.4547,3.4547,3.4547,0,3.4209,3.4208,3.4225,3.4246,3.425,3.4277,3.4228,3.4258,3.4279,3.4237,3.4279,3.4279,3.4287,3.4341,3.4364,3.4342,3.4456,3.4416,3.4423,3.4425,3.4458,3.4472,3.4484,3.4324,3.4323,3.4323,0,0,3.4171,3.4195,3.4188,3.4234,3.4239,3.4225,3.4238,3.4222,3.4229,3.4232,3.423,3.4239,3.4262,3.4278,3.4298,3.4359,3.436,3.4389,3.44,3.4408,3.4415,3.4451,3.4464,3.432,3.432,3.432,0,0,3.4152,3.4145,3.4127,3.4178,3.4186,3.4182,3.4212,3.419,3.4206,3.42,3.4176,3.4177,3.4226,3.4226,3.4192,3.4283,3.4239,3.4247,3.4281,3.4294,3.4304,3.4303,3.4141,0,0,0,0,0,3.4095,3.4146,3.413,3.4136,3.416,3.4191,3.4194,3.4175,3.4145,3.4169,3.4164,3.4136,3.4204,3.4173,3.418,3.4218,3.4285,3.4291,3.4297,3.4354,3.4368,3.438,0,0,0,0,0,0,3.4097,3.4105,3.4128,3.4126,3.4132,3.4189,3.4135,3.4131,3.4142,3.4136,3.4138,3.4136,3.4121,3.4168,3.4174,3.4211,3.4139,3.4287,3.4293,3.4297,3.4359,3.437,3.438,0,0,0,0,0,3.4099,3.4105,3.415,3.4126,3.413,3.4117,3.4132,3.4129,3.4137,3.4128,3.4125,3.4121,3.4122,3.4127,3.4171,3.4209,3.4134,3.4137,3.4291,3.4295,3.4299,3.4365,0,0,0,0,0,0,3.41,3.4102,3.415,3.4151,3.4104,3.4113,3.4114,3.4127,3.4128,3.4126,3.411,3.4105,3.4124,3.4127,3.4131,3.4209,3.413,3.4133,3.4135,3.4294,3.4297,3.43,0,0,0,0,0,0,3.4099,3.4103,3.415,3.4124,3.4122,3.411,3.411,3.4145,3.4129,3.411,3.4106,3.4108,3.4119,3.4128,3.413,3.4185,3.4127,3.413,3.4132,3.4133,3.4297,3.4299,0,0,0,0,0,0,3.41,3.4104,3.4124,3.4122,3.412,3.4127,3.414,3.4167,3.4106,3.411,3.41,3.4097,3.4121,3.4123,3.413,3.4184,3.4185,3.4127,3.4129,3.413,3.4131,0,0,0,0,0,0,0,3.4102,3.4081,3.4145,3.412,3.4118,3.4158,3.4158,3.4158,3.4105,3.4103,3.41,3.4098,3.4113,3.4116,3.4119,3.4184,0,0,3.4127,3.4128,0,0,0,0,0,0,0,0,3.4079,3.4081,3.4145,3.4146,3.4146,3.4158,3.4158,3.4158,3.4105,3.4103,3.4101,3.4099,3.4114,3.4116,3.4118,0,0,0,0,0,0,0,0,0,0,0,0,0,0,0,3.4145,3.4146,0,3.4158,3.4158,3.4158,3.4104,3.4103,3.4101,3.41,3.4114,3.4116,3.4118,0,0,0,0,0,0,0,0,0,0,0,0,0,0,0,0,0,0,0,0,0,0,0,0,0,0,0,0,0,0,0,0,0,0,0,0,0,0,0,0,0,0,0,0,0,0,0,0,0,0,0,0,0,0,0,0,0,0,0,0,0,0,0,0,0,0,0,0,0]}],[{"header":{"parameterUnit":"kt","parameterCategory":2,"dx":1,"dy":1,"la1":30.253999710083008,"la2":30.299108505249023,"lo1":-89.0895004272461,"lo2":-89.04439544677734,"nx":28,"ny":28,"refTime":"2022-09-29T21:00:00:Z","depth":0,"parameterNumber":2,"parameterNumberName":"V-component_of_WINDS"},"data":[-6.6539,-6.6588,-6.6612,-6.6678,-6.671,-6.6759,-6.6784,-6.6818,-6.685,-6.691,-6.6948,-6.6974,-6.7013,-6.7062,-6.7103,-6.7113,-6.7129,-6.7132,-6.7144,-6.7112,-6.7108,-6.7105,-6.7097,-6.7135,-6.7135,-6.7174,-6.7175,-6.7175,-6.6521,-6.6554,-6.6595,-6.665,-6.6686,-6.6699,-6.6742,-6.6771,-6.6813,-6.6852,-6.6889,-6.6942,-6.6986,-6.7023,-6.7068,-6.7091,-6.7098,-6.7102,-6.7101,-6.7107,-6.7073,-6.7064,-6.7096,-6.7096,-6.7096,-6.7096,-6.7096,-6.7096,-6.6496,-6.6523,-6.657,-6.6614,-6.6647,-6.6683,-6.6713,-6.6744,-6.6783,-6.6833,-6.685,-6.6896,-6.6937,-6.6999,-6.7024,-6.7061,-6.706,-6.7069,-6.7072,-6.7075,-6.7076,-6.7023,-6.7069,-6.7069,-6.7069,-6.7069,-6.7069,0,-6.6484,-6.6501,-6.654,-6.6587,-6.662,-6.6657,-6.6694,-6.6713,-6.6752,-6.6781,-6.6826,-6.6855,-6.691,-6.6953,-6.6998,-6.7021,-6.7033,-6.7035,-6.7043,-6.7037,-6.7028,-6.7036,-6.6983,-6.7033,-6.7033,-6.7033,-6.7033,-6.7033,-6.6461,-6.6488,-6.6545,-6.657,-6.6596,-6.6634,-6.6661,-6.6693,-6.6719,-6.6768,-6.6789,-6.6833,-6.6869,-6.6933,-6.6965,-6.7005,-6.7011,-6.7029,-6.7016,-6.7012,-6.7014,-6.7013,-6.7017,-6.703,-6.7031,-6.7031,-6.7031,0,-6.6447,-6.6481,-6.653,-6.6581,-6.6595,-6.6622,-6.6666,-6.6693,-6.6718,-6.6758,-6.6769,-6.6808,-6.6849,-6.6877,-6.6928,-6.6941,-6.6988,-6.6991,-6.6976,-6.6979,-6.6999,-6.6998,-6.7056,-6.7067,-6.7025,-6.7025,-6.7025,0,-6.644,-6.6474,-6.6523,-6.6549,-6.6589,-6.662,-6.6657,-6.6682,-6.6717,-6.6748,-6.6767,-6.6796,-6.6827,-6.686,-6.688,-6.6922,-6.693,-6.6944,-6.6949,-6.6943,-6.6942,-6.6956,-6.6955,-6.6955,-6.6955,-6.6955,-6.6955,0,-6.6415,-6.6478,-6.6521,-6.6541,-6.6597,-6.6616,-6.664,-6.6677,-6.6701,-6.6737,-6.6754,-6.6792,-6.6813,-6.6842,-6.6867,-6.6859,-6.6919,-6.6911,-6.6932,-6.6932,-6.6943,-6.6942,-6.6988,-6.6954,-6.6954,-6.6954,-6.6954,0,-6.6414,-6.6451,-6.6507,-6.6555,-6.657,-6.6596,-6.6638,-6.6667,-6.6705,-6.6719,-6.6747,-6.6761,-6.6798,-6.679,-6.6842,-6.6824,-6.6844,-6.6859,-6.6861,-6.6866,-6.6856,-6.688,-6.6919,-6.6925,-6.6872,-6.6872,-6.6871,0,-6.6378,-6.6441,-6.6467,-6.6518,-6.6552,-6.6572,-6.6602,-6.6634,-6.6655,-6.6686,-6.6709,-6.6743,-6.6742,-6.6756,-6.6778,-6.6802,-6.6826,-6.68,-6.6844,-6.6845,-6.6836,-6.6872,-6.6872,-6.6907,-6.6862,-6.6863,-6.6864,0,-6.6352,-6.6419,-6.6425,-6.645,-6.6496,-6.6522,-6.6556,-6.6596,-6.6616,-6.6647,-6.6677,-6.6722,-6.6724,-6.6746,-6.676,-6.6781,-6.6811,-6.678,-6.6781,-6.6786,-6.6859,-6.686,-6.6865,-6.6816,-6.6817,-6.6818,-6.6857,0,-6.6349,-6.6383,-6.6402,-6.645,-6.6474,-6.6506,-6.6536,-6.6558,-6.6571,-6.6592,-6.6633,-6.6662,-6.67,-6.6712,-6.6722,-6.6761,-6.6759,-6.6759,-6.6752,-6.6775,-6.6789,-6.6794,-6.673,-6.673,-6.673,-6.673,0,0,-6.6306,-6.6354,-6.6379,-6.6412,-6.6435,-6.6453,-6.6484,-6.6507,-6.6551,-6.6566,-6.6563,-6.6631,-6.6653,-6.67,-6.6709,-6.6723,-6.6733,-6.6722,-6.6763,-6.6767,-6.677,-6.6785,-6.679,-6.673,-6.673,-6.673,-6.673,0,-6.6311,-6.6336,-6.6366,-6.6392,-6.643,-6.6451,-6.6458,-6.6498,-6.6512,-6.6551,-6.6564,-6.6591,-6.6641,-6.6665,-6.6684,-6.6718,-6.6724,-6.6727,-6.6737,-6.6762,-6.6766,-6.6769,-6.6784,-6.6788,-6.673,-6.673,-6.673,0,-6.6293,-6.6323,-6.634,-6.6389,-6.6413,-6.6445,-6.6446,-6.6477,-6.6501,-6.6514,-6.6552,-6.6571,-6.6604,-6.6643,-6.6661,-6.6658,-6.6716,-6.67,-6.6701,-6.6703,-6.6729,-6.6733,-6.6737,-6.6686,-6.6685,-6.6685,0,0,-6.6292,-6.6322,-6.6362,-6.6392,-6.6407,-6.6437,-6.6455,-6.6469,-6.6499,-6.651,-6.6534,-6.6562,-6.6592,-6.6611,-6.664,-6.6678,-6.6687,-6.6694,-6.6696,-6.6697,-6.6701,-6.6726,-6.673,-6.6684,-6.6684,-6.6684,0,0,-6.6291,-6.634,-6.6347,-6.6385,-6.6415,-6.6454,-6.6471,-6.648,-6.6509,-6.6508,-6.653,-6.6538,-6.6575,-6.6591,-6.6576,-6.6638,-6.663,-6.6634,-6.6625,-6.6628,-6.663,-6.6626,-6.6579,0,0,0,0,0,-6.631,-6.6334,-6.634,-6.6351,-6.641,-6.6451,-6.6459,-6.6479,-6.6475,-6.6488,-6.651,-6.6515,-6.6589,-6.6576,-6.6585,-6.6601,-6.6672,-6.6674,-6.6676,-6.6674,-6.6677,-6.6679,0,0,0,0,0,0,-6.6314,-6.6327,-6.634,-6.638,-6.6394,-6.645,-6.6448,-6.6454,-6.6474,-6.6475,-6.6511,-6.6516,-6.6532,-6.6572,-6.658,-6.6596,-6.6576,-6.6673,-6.6675,-6.6676,-6.6675,-6.6677,-6.6679,0,0,0,0,0,-6.6318,-6.6328,-6.6418,-6.638,-6.6392,-6.6425,-6.6447,-6.6452,-6.6468,-6.65,-6.6506,-6.6481,-6.6532,-6.654,-6.6577,-6.6591,-6.6571,-6.6574,-6.6674,-6.6676,-6.6677,-6.6676,0,0,0,0,0,0,-6.6321,-6.6333,-6.6421,-6.6426,-6.6372,-6.6422,-6.643,-6.6451,-6.6492,-6.6498,-6.6472,-6.6472,-6.6532,-6.6539,-6.6545,-6.6589,-6.6567,-6.657,-6.6571,-6.6675,-6.6676,-6.6677,0,0,0,0,0,0,-6.6327,-6.6336,-6.6423,-6.6412,-6.6415,-6.6419,-6.6427,-6.6459,-6.6493,-6.6461,-6.6463,-6.6471,-6.6522,-6.6538,-6.6542,-6.6593,-6.6563,-6.6566,-6.6568,-6.6569,-6.6676,-6.6677,0,0,0,0,0,0,-6.6331,-6.6339,-6.6411,-6.6414,-6.6416,-6.6466,-6.6448,-6.6507,-6.6485,-6.6459,-6.6483,-6.6483,-6.6521,-6.6526,-6.6541,-6.6589,-6.6592,-6.6563,-6.6565,-6.6567,-6.6568,0,0,0,0,0,0,0,-6.6335,-6.6279,-6.6396,-6.6415,-6.6417,-6.6466,-6.6467,-6.6468,-6.6485,-6.6484,-6.6484,-6.6483,-6.6547,-6.655,-6.6553,-6.6586,0,0,-6.6563,-6.6564,0,0,0,0,0,0,0,0,-6.6276,-6.6278,-6.6396,-6.6397,-6.6398,-6.6466,-6.6467,-6.6468,-6.6485,-6.6484,-6.6484,-6.6483,-6.6548,-6.655,-6.6553,0,0,0,0,0,0,0,0,0,0,0,0,0,0,0,-6.6396,-6.6397,0,-6.6466,-6.6467,-6.6467,-6.6485,-6.6484,-6.6484,-6.6483,-6.6549,-6.6551,-6.6553,0,0,0,0,0,0,0,0,0,0,0,0,0,0,0,0,0,0,0,0,0,0,0,0,0,0,0,0,0,0,0,0,0,0,0,0,0,0,0,0,0,0,0,0,0,0,0,0,0,0,0,0,0,0,0,0,0,0,0,0,0,0,0,0,0,0,0,0,0]}]]]